WetterOnline ( https://www.wetteronline.at )

Wetter aktuell Rathenow

Aktuelles Wetter: Genthin (39m)

6-stündlich | Neueste Meldungen
Ortszeit Temperatur Wetter
Mo, 20.01. 1:00 1.8° C wolkenlos
So, 19.01. 19:00 4.6° C bedeckt
So, 19.01. 13:00 5.4° C wolkig
So, 19.01. 7:00 3.1° C bewölkt
So, 19.01. 1:00 3.3° C bewölkt
Sa, 18.01. 19:00 4.4° C bewölkt
Sa, 18.01. 13:00 7.1° C wolkig
Sa, 18.01. 7:00 4.0° C leicht bewölkt
Ortszeit Temperatur Wetter
Mo, 20.01. 6:30 -2.4° C wolkig
Mo, 20.01. 6:20 -2.4° C wolkig
Mo, 20.01. 6:10 -2.1° C wolkig
Mo, 20.01. 6:00 -2.0° C wolkig
Mo, 20.01. 5:50 -2.0° C wolkig
Mo, 20.01. 5:40 -1.8° C wolkig
Mo, 20.01. 5:30 -2.1° C leicht bewölkt
Mo, 20.01. 5:00 -1.7° C leicht bewölkt
Mo, 20.01. 4:30 -1.1° C wolkenlos
Mo, 20.01. 4:00 -0.7° C wolkenlos
Mo, 20.01. 3:30 -0.3° C wolkenlos
Mo, 20.01. 3:00 0.1° C wolkenlos
Ortszeit Relative Feuchte Sichtweite
Mo, 20.01. 1:00 93% 17 km
So, 19.01. 19:00 87% 25 km
So, 19.01. 13:00 80% 28 km
So, 19.01. 7:00 90% 23 km
So, 19.01. 1:00 87% 22 km
Sa, 18.01. 19:00 81% 55 km
Sa, 18.01. 13:00 65% 50 km
Sa, 18.01. 7:00 81% 45 km
Ortszeit Relative Feuchte Sichtweite
Mo, 20.01. 6:30 98% 9 km
Mo, 20.01. 6:20 98% -
Mo, 20.01. 6:10 99% -
Mo, 20.01. 6:00 99% 11 km
Mo, 20.01. 5:50 99% -
Mo, 20.01. 5:40 99% -
Mo, 20.01. 5:30 99% 7 km
Mo, 20.01. 5:00 99% 9 km
Mo, 20.01. 4:30 99% 12 km
Mo, 20.01. 4:00 97% 11 km
Mo, 20.01. 3:30 96% 13 km
Mo, 20.01. 3:00 96% 13 km
Ortszeit Niederschlagsmenge Niederschlagsart
Mo, 20.01. 1:00 0.0 l/m2 in 6 Std. -
So, 19.01. 19:00 0.0 l/m2 in 12 Std. -
So, 19.01. 13:00 0.0 l/m2 in 6 Std. -
So, 19.01. 7:00 0.1 l/m2 in 12 Std. Regen
So, 19.01. 1:00 0.0 l/m2 in 6 Std. -
Sa, 18.01. 19:00 0.0 l/m2 in 12 Std. -
Sa, 18.01. 13:00 0.0 l/m2 in 6 Std. -
Sa, 18.01. 7:00 0.1 l/m2 in 12 Std. -
Ortszeit Niederschlagsmenge Niederschlagsart
Mo, 20.01. 6:30 0.0 l/m2 in 1 Std. -
Mo, 20.01. 6:20 keine Meldung -
Mo, 20.01. 6:10 keine Meldung -
Mo, 20.01. 6:00 0.0 l/m2 in 1 Std. -
Mo, 20.01. 5:50 keine Meldung -
Mo, 20.01. 5:40 keine Meldung -
Mo, 20.01. 5:30 0.0 l/m2 in 1 Std. -
Mo, 20.01. 5:00 0.0 l/m2 in 1 Std. -
Mo, 20.01. 4:30 0.0 l/m2 in 1 Std. -
Mo, 20.01. 4:00 0.0 l/m2 in 1 Std. -
Mo, 20.01. 3:30 0.0 l/m2 in 1 Std. -
Mo, 20.01. 3:00 0.0 l/m2 in 1 Std. -
Ortszeit Stärke Spitze Richtung
km/h Bft. km/h Grad Sektor
Mo, 20.01. 1:00 7 2 11 260° W
So, 19.01. 19:00 4 1 18 250° W
So, 19.01. 13:00 11 2 22 320° NW
So, 19.01. 7:00 7 2 18 270° W
So, 19.01. 1:00 7 2 22 240° SW
Sa, 18.01. 19:00 7 2 29 230° SW
Sa, 18.01. 13:00 15 3 28 230° SW
Sa, 18.01. 7:00 9 2 22 230° SW
Ortszeit Stärke Spitze Richtung
km/h Bft. km/h Grad Sektor
Mo, 20.01. 6:30 4 1 7 220° SW
Mo, 20.01. 6:20 4 1 - 220° SW
Mo, 20.01. 6:10 4 1 - 230° SW
Mo, 20.01. 6:00 4 1 7 230° SW
Mo, 20.01. 5:50 4 1 - 230° SW
Mo, 20.01. 5:40 4 1 - 230° SW
Mo, 20.01. 5:30 0 0 7 - -
Mo, 20.01. 5:00 4 1 7 280° W
Mo, 20.01. 4:30 4 1 7 250° W
Mo, 20.01. 4:00 4 1 11 270° W
Mo, 20.01. 3:30 7 2 11 270° W
Mo, 20.01. 3:00 7 2 11 270° W
Ortszeit Untergrenze Bedeckung Gattung
total tief tief mittel hoch
Mo, 20.01. 1:00 - 0/8 0/8 - - -
So, 19.01. 19:00 870 m 8/8 8/8 - - -
So, 19.01. 13:00 450 m 6/8 7/8 - - -
So, 19.01. 7:00 1500 m 7/8 7/8 - - -
So, 19.01. 1:00 510 m 7/8 7/8 - - -
Sa, 18.01. 19:00 1290 m 7/8 7/8 - - -
Sa, 18.01. 13:00 4800 m 8/8 8/8 - - -
Sa, 18.01. 7:00 4800 m 3/8 2/8 - - -
Ortszeit Bedeckungsgrad in Achtel und Wolkenuntergrenze
Mo, 20.01. 6:30 7(7200m)
Mo, 20.01. 6:20 7(7200m)
Mo, 20.01. 6:10 8(7500m)
Mo, 20.01. 6:00 8(7500m)
Mo, 20.01. 5:50 8(7500m)
Mo, 20.01. 5:40 7(7500m)
Mo, 20.01. 5:30 5(7500m) 5(9000m)
Mo, 20.01. 5:00 2(7800m) 3(8400m)
Mo, 20.01. 4:30 keine Wolken
Mo, 20.01. 4:00 keine Wolken
Mo, 20.01. 3:30 keine Wolken
Mo, 20.01. 3:00 keine Wolken
Ortszeit Luftdruck NN (hPa) Tendenz (hPa in 3 Std.)
Mo, 20.01. 1:00 1044 + 2,0
So, 19.01. 19:00 1039 + 2,8
So, 19.01. 13:00 1035 + 1,8
So, 19.01. 7:00 1030 + 2,1
So, 19.01. 1:00 1027 + 1,4
Sa, 18.01. 19:00 1025 + 1,5
Sa, 18.01. 13:00 1023 + 0,1
Sa, 18.01. 7:00 1021 + 1,8
Ortszeit Luftdruck NN (hPa) Tendenz (hPa in 3 Std.)
Mo, 20.01. 6:30 1045 + 0,6
Mo, 20.01. 6:20 1045 keine Meldung
Mo, 20.01. 6:10 1045 keine Meldung
Mo, 20.01. 6:00 1045 + 0,7
Mo, 20.01. 5:50 1045 keine Meldung
Mo, 20.01. 5:40 1045 keine Meldung
Mo, 20.01. 5:30 1045 + 1,4
Mo, 20.01. 5:00 1045 + 1,3
Mo, 20.01. 4:30 1045 + 0,9
Mo, 20.01. 4:00 1044 + 0,9
Mo, 20.01. 3:30 1045 + 1,3
Mo, 20.01. 3:00 1044 + 1,4
Ortszeit Schneehöhe (cm)
Mo, 20.01. 1:00 0
So, 19.01. 19:00 0
So, 19.01. 13:00 0
So, 19.01. 7:00 0
So, 19.01. 1:00 0
Sa, 18.01. 19:00 0
Sa, 18.01. 13:00 0
Sa, 18.01. 7:00 0
Ortszeit Schneehöhe (cm)
Mo, 20.01. 6:30 0
Mo, 20.01. 6:20 0
Mo, 20.01. 6:10 0
Mo, 20.01. 6:00 0
Mo, 20.01. 5:50 0
Mo, 20.01. 5:40 0
Mo, 20.01. 5:30 0
Mo, 20.01. 5:00 0
Mo, 20.01. 4:30 0
Mo, 20.01. 4:00 0
Mo, 20.01. 3:30 0
Mo, 20.01. 3:00 0
Link zu dieser Seite / Seite empfehlen

Das Wetter in ...